カタログに戻る

STARLINK-34389

運用中通信VLEO
NORAD 64351·PAYLOAD·🇺🇸 United States

打ち上げ Jun 13, 2025 から Vandenberg Space Force Base

Loading…

次のパス (今後24時間)

TLE

最新Source: CelesTrak SupGP

元期: Sep 14, 2026, 21:39 UTC

1 64351C 25126H   26257.90256944  .00075782  00000+0  26366-2 0  2576
2 64351  69.9998 275.7921 0003316 266.9706 102.3206 15.29535822    10

AllMySatでSTARLINK-34389をリアルタイム追跡

Download on the App Store